Wind_Speed
8 9 11 11 12 13 13 13 13 16 17 17 18 18 15 16 16 14 14 16 14 12 12 12 13 12 10 8 11 9 9 10 10 9 17 10 11 12 12 12 11 11 12
8 8 8 9 11 12 12 13 14 14 15 16 17 18 17 17 19 17 18 17 17 17 16 16 16 15 13 12 11 14 16 11 11 14 16 12 11 11 12 14 11 12 12
9 10 12 11 12 14 14 14 15 16 16 17 19 19 19 19 19 18 18 17 19 19 20 18 17 17 14 14 13 13 13 15 16 15 15 15 14 14 14 12 14 14 14
6 7 9 12 14 15 16 18 18 19 20 20 22 23 22 21 21 20 19 18 18 18 19 21 20 18 16 14 14 14 15 11 15 12 13 13 14 14 14 13 14 13 15
7 8 10 13 17 20 21 22 23 24 23 24 25 25 25 24 21 20 21 21 21 20 21 20 21 20 17 16 16 16 16 15 16 14 13 14 15 16 15 16 17 16 15
13 14 14 18 20 22 23 24 26 25 26 27 29 29 27 27 28 25 22 23 23 23 21 21 21 22 20 19 18 18 19 19 17 18 16 16 17 17 18 17 17 17 18
18 19 19 20 20 23 22 22 23 24 27 28 28 29 30 28 27 28 27 26 25 23 22 22 23 24 23 23 21 22 21 20 20 20 20 21 21 21 19 19 18 20 19
23 23 25 24 20 20 24 27 28 28 28 27 26 27 29 30 31 29 29 31 32 29 28 25 25 27 30 26 25 25 25 24 24 24 23 23 24 23 21 22 22 21 21
25 27 26 25 25 23 23 25 28 31 30 30 31 29 29 29 33 32 30 33 34 33 37 33 33 30 29 32 31 30 28 28 27 25 27 26 25 24 24 21 22 23 24
30 30 30 30 29 28 27 29 32 33 35 36 36 34 31 29 32 34 32 35 36 36 34 35 29 30 33 33 32 31 31 30 31 27 29 29 28 26 26 25 23 24 24
31 32 33 33 34 33 32 34 37 40 40 36 35 35 34 34 32 35 33 34 34 35 36 35 34 33 33 35 33 34 32 30 33 29 29 29 29 28 27 26 24 25 25
33 34 34 35 36 38 37 39 37 33 32 31 32 32 33 35 36 37 37 36 36 38 36 36 33 32 33 36 38 34 34 33 32 31 31 28 29 28 28 28 28 27 27
30 31 34 37 39 38 33 31 30 30 31 32 34 36 36 38 38 40 39 39 38 38 36 37 37 33 32 28 28 29 32 32 31 34 33 32 28 29 30 29 29 27 29
26 29 33 33 27 23 24 26 28 30 32 34 35 36 38 41 40 38 38 38 38 37 36 35 36 35 34 32 30 29 31 34 36 36 37 32 31 32 33 29 28 29 29
23 25 22 15 16 19 21 23 24 26 28 30 31 32 31 32 35 36 37 35 37 35 36 34 34 34 34 35 34 35 32 34 39 34 34 33 38 39 32 26 31 27 26
23 21 15 14 16 17 19 20 20 22 24 25 25 24 22 24 29 31 32 31 32 32 33 30 29 32 33 34 33 33 35 35 33 39 38 39 40 39 27 33 34 25 19
20 17 14 15 17 18 17 18 20 20 23 22 19 19 20 17 18 24 26 25 29 30 30 28 29 30 30 30 30 33 36 36 40 42 42 37 38 38 42 35 28 28 23
17 14 14 16 16 16 16 16 15 15 19 18 21 14 15 16 19 15 19 24 26 28 30 31 31 30 30 29 31 32 34 35 39 47 35 35 30 27 33 28 24 22 18
13 14 15 14 12 12 14 13 16 14 15 16 14 9 8 10 11 14 15 16 20 23 25 25 25 26 26 25 27 29 27 27 28 21 22 31 32 28 24 21 22 22 20
9 11 9 10 13 9 10 8 14 16 13 15 18 12 2 14 16 9 8 10 12 18 24 26 26 31 35 34 28 20 16 18 25 23 19 19 18 16 19 23 27 22 18
5 5 6 8 5 7 6 8 9 13 12 14 14 3 8 7 8 6 15 13 10 12 13 14 13 14 14 13 10 8 6 4 5 6 12 18 21 20 23 24 20 16 15
9 5 5 3 9 8 5 6 9 9 6 4 4 7 4 3 4 4 11 11 11 9 11 16 17 12 14 14 12 12 14 13 13 13 15 16 15 16 15 15 13 12 14
2 2 17 4 13 11 6 3 8 8 8 7 5 5 3 5 4 4 3 5 3 1 4 5 7 6 6 7 8 10 11 11 12 14 15 14 13 13 13 13 13 15 17
6 6 12 8 12 9 9 3 10 8 7 7 6 4 2 11 4 2 3 3 1 4 3 2 2 2 2 3 2 2 4 6 8 9 11 12 13 14 15 16 16 17 19
12 8 10 5 12 12 11 9 7 6 7 7 7 6 6 7 6 6 6 5 3 5 4 5 5 5 5 7 9 10 10 8 10 11 12 14 16 17 17 17 18 19 21
6 7 9 9 9 9 10 11 8 8 10 11 10 9 10 10 10 10 9 9 8 9 7 7 7 7 7 8 9 10 11 11 14 14 16 17 18 18 18 18 19 18 19
Wind_Direction
219 218 220 227 231 237 245 252 248 245 248 248 259 259 253 253 254 253 255 257 248 248 246 245 246 252 241 236 277 247 230 246 249 247 271 273 277 270 262 261 277 281 320
227 237 242 247 252 254 259 260 259 259 260 264 262 262 265 262 260 260 261 265 248 247 248 254 258 255 251 251 240 223 218 243 232 240 255 273 274 273 268 263 275 273 280
256 259 255 258 263 264 265 263 265 268 268 268 266 264 262 265 268 267 263 266 265 250 250 252 253 256 259 255 240 252 256 232 247 242 243 258 270 270 273 271 273 272 275
250 268 267 269 273 271 271 271 271 274 279 284 281 270 267 264 265 269 270 269 267 263 259 258 251 248 251 258 245 249 249 251 248 247 252 255 263 274 272 268 272 271 278
250 279 295 288 281 278 277 277 274 276 279 280 279 279 269 266 267 266 268 268 264 265 266 262 253 251 252 251 252 247 246 251 260 256 255 258 264 271 272 267 269 273 275
269 270 274 296 283 270 272 274 274 275 276 275 275 270 269 263 264 267 265 264 265 261 261 264 257 257 254 254 250 251 252 251 255 262 261 264 267 268 268 269 269 273 272
274 272 273 293 295 277 274 269 271 280 284 281 276 272 263 263 260 264 261 258 259 258 258 258 260 259 255 257 257 253 253 256 259 259 263 266 262 261 265 269 268 265 268
265 268 277 289 301 283 278 269 271 278 283 283 284 278 269 260 262 260 263 259 255 260 253 256 256 254 259 256 256 258 259 260 259 257 262 263 265 263 261 263 265 270 269
270 271 273 278 292 291 280 273 272 275 278 281 280 278 273 266 261 263 258 260 257 259 257 263 262 257 253 257 257 257 259 261 264 262 263 262 261 263 263 263 265 266 270
268 269 276 277 284 287 285 279 275 275 276 277 276 272 269 263 260 260 263 257 261 258 262 264 258 260 258 252 255 254 253 256 259 260 265 260 260 259 263 262 264 268 268
275 271 276 275 282 281 283 284 282 281 278 275 272 269 265 264 259 258 256 259 262 263 262 263 259 266 267 257 253 249 250 249 257 261 258 262 256 256 262 260 263 266 269
274 274 275 277 278 281 283 284 284 279 275 272 270 269 268 264 260 258 258 256 258 261 263 267 268 264 269 262 241 243 247 251 251 255 257 258 257 255 257 258 263 265 269
273 274 276 277 280 282 283 283 281 279 277 273 271 269 267 266 263 261 258 255 256 259 261 263 265 266 265 276 254 242 252 252 252 254 256 257 257 257 253 257 262 266 273
280 282 283 282 284 284 284 284 285 285 284 281 275 271 265 258 257 255 257 256 254 255 258 260 264 266 262 263 263 257 253 252 250 251 256 259 255 255 255 255 265 269 253
290 293 290 285 284 285 288 290 292 293 297 289 284 278 270 255 252 252 253 253 253 252 254 256 258 260 260 261 261 261 255 264 247 251 255 256 252 262 255 274 282 246 218
296 290 284 286 285 287 297 301 301 305 311 300 293 273 273 263 252 249 249 247 249 251 253 255 255 256 258 259 264 257 250 256 253 252 254 258 268 263 241 259 260 208 200
287 279 278 283 288 297 309 313 312 314 319 315 295 272 269 262 262 256 250 246 243 247 250 253 254 254 257 260 258 258 257 259 259 257 253 256 251 263 273 239 200 206 201
273 264 277 284 286 294 307 313 317 328 339 330 333 298 275 267 251 259 259 247 245 247 250 253 256 258 258 256 255 252 254 256 264 252 247 248 240 209 191 190 194 179 203
272 271 272 279 285 296 301 307 318 326 334 349 337 338 279 271 273 255 258 248 249 246 250 253 256 257 258 258 256 251 250 245 232 242 223 191 185 187 192 187 181 192 207
281 276 266 286 290 296 309 331 331 316 332 351 343 313 61 103 114 140 215 229 239 242 252 253 257 261 262 256 249 237 240 199 171 160 168 176 189 200 198 195 194 207 203
272 284 255 276 284 270 269 279 298 309 330 356 20 7 329 19 47 68 102 105 106 107 104 98 105 99 97 103 110 99 97 143 173 154 159 174 185 203 216 220 212 202 201
252 279 295 332 286 286 292 313 310 300 309 306 347 66 76 347 11 54 68 81 110 109 103 107 113 134 149 154 162 165 168 169 194 205 210 227 216 213 211 210 211 218 223
148 220 294 260 271 279 298 318 307 304 309 316 308 315 308 312 350 22 51 109 60 125 139 137 137 142 144 149 163 164 165 185 199 206 210 216 216 220 224 224 222 227 230
160 235 253 239 273 288 299 310 258 290 286 294 316 321 282 318 346 350 340 1 24 313 296 249 220 225 208 236 229 207 212 214 220 228 229 228 231 231 229 231 231 233 238
159 240 260 278 282 322 320 299 292 297 307 317 315 307 294 288 288 292 307 308 301 289 290 280 288 288 288 277 264 257 259 253 247 245 244 242 240 240 241 242 242 244 242
219 220 256 264 264 266 273 280 280 291 309 313 307 305 305 307 312 310 305 304 306 305 300 293 292 293 283 270 268 269 270 260 256 254 248 247 248 249 250 247 248 248 247
Height
3170 3171 3173 3175 3177 3179 3181 3183 3184 3185 3186 3188 3189 3189 3190 3190 3192 3193 3194 3193 3194 3194 3195 3196 3197 3198 3198 3198 3199 3198 3201 3201 3202 3201 3201 3202 3200 3200 3200 3200 3200 3199 3198
3169 3171 3173 3175 3176 3177 3179 3180 3182 3183 3183 3185 3186 3186 3187 3188 3188 3190 3190 3190 3191 3191 3192 3193 3194 3195 3195 3195 3196 3198 3198 3196 3193 3200 3200 3199 3199 3198 3198 3197 3198 3197 3197
3169 3171 3172 3173 3174 3175 3176 3177 3178 3179 3180 3181 3182 3183 3185 3185 3185 3185 3186 3187 3187 3188 3188 3189 3190 3191 3192 3192 3192 3192 3194 3195 3195 3196 3197 3195 3196 3195 3195 3195 3195 3195 3195
3169 3170 3171 3172 3173 3174 3174 3175 3175 3176 3177 3177 3178 3178 3179 3180 3181 3181 3181 3182 3183 3184 3184 3185 3185 3186 3188 3188 3189 3189 3190 3191 3191 3192 3192 3193 3193 3192 3192 3192 3192 3192 3192
3167 3168 3169 3170 3170 3171 3171 3171 3171 3171 3172 3172 3172 3173 3173 3174 3175 3176 3177 3177 3177 3178 3179 3180 3181 3181 3183 3184 3185 3186 3187 3187 3187 3188 3188 3189 3189 3189 3189 3189 3189 3189 3189
3165 3166 3167 3167 3166 3166 3166 3167 3166 3166 3166 3165 3165 3166 3167 3168 3169 3170 3170 3171 3171 3172 3174 3175 3177 3177 3178 3179 3180 3181 3183 3183 3183 3184 3184 3184 3184 3185 3185 3185 3185 3185 3185
3162 3162 3163 3163 3162 3162 3161 3161 3161 3161 3160 3159 3159 3158 3159 3160 3162 3163 3164 3164 3165 3166 3168 3170 3171 3172 3173 3174 3175 3176 3177 3178 3179 3180 3180 3180 3179 3181 3180 3180 3181 3180 3180
3159 3159 3159 3158 3157 3157 3156 3156 3156 3155 3154 3152 3152 3152 3152 3153 3154 3156 3157 3156 3157 3159 3161 3163 3164 3166 3166 3168 3169 3169 3170 3172 3173 3174 3175 3176 3175 3175 3176 3175 3175 3175 3175
3154 3154 3153 3153 3152 3151 3151 3150 3150 3148 3147 3146 3145 3145 3144 3145 3146 3147 3150 3148 3150 3152 3153 3155 3156 3158 3160 3160 3161 3162 3164 3165 3166 3167 3168 3169 3169 3169 3169 3170 3170 3170 3169
3148 3148 3148 3147 3146 3145 3144 3144 3142 3141 3140 3138 3136 3136 3136 3137 3138 3138 3141 3140 3140 3143 3145 3145 3146 3149 3152 3152 3153 3154 3156 3159 3158 3161 3161 3161 3162 3163 3163 3163 3164 3163 3164
3142 3142 3141 3140 3140 3138 3137 3135 3133 3131 3130 3128 3126 3126 3127 3127 3129 3129 3131 3131 3132 3134 3135 3136 3139 3141 3141 3142 3144 3145 3148 3150 3150 3151 3152 3154 3154 3156 3156 3157 3157 3157 3157
3135 3134 3134 3133 3131 3129 3128 3125 3123 3120 3119 3119 3117 3117 3117 3117 3118 3119 3121 3123 3124 3124 3127 3128 3130 3132 3132 3131 3131 3135 3138 3140 3141 3143 3144 3146 3147 3149 3149 3149 3150 3150 3150
3128 3128 3126 3124 3122 3120 3117 3116 3114 3112 3111 3110 3108 3108 3108 3107 3107 3107 3110 3112 3114 3115 3118 3119 3119 3122 3122 3122 3120 3124 3129 3132 3133 3134 3135 3137 3140 3140 3140 3141 3142 3141 3142
3121 3119 3117 3115 3112 3111 3110 3109 3106 3103 3101 3098 3097 3095 3095 3096 3096 3097 3098 3100 3103 3105 3108 3109 3110 3112 3114 3115 3114 3117 3122 3123 3124 3125 3125 3130 3130 3130 3132 3132 3133 3133 3131
3114 3112 3110 3108 3107 3107 3106 3104 3100 3097 3093 3089 3086 3083 3082 3083 3084 3087 3088 3090 3092 3095 3097 3099 3102 3103 3105 3107 3109 3110 3112 3113 3112 3114 3116 3119 3118 3120 3120 3120 3121 3125 3124
3108 3106 3105 3105 3104 3103 3101 3098 3095 3091 3087 3082 3078 3076 3075 3074 3075 3077 3079 3081 3084 3086 3088 3090 3092 3094 3095 3097 3098 3100 3101 3102 3103 3104 3106 3108 3109 3109 3109 3109 3113 3117 3119
3104 3103 3102 3102 3100 3099 3098 3094 3090 3087 3082 3077 3072 3070 3069 3069 3068 3069 3071 3073 3076 3078 3080 3082 3084 3085 3086 3087 3088 3090 3091 3093 3095 3095 3096 3097 3100 3102 3103 3103 3104 3107 3114
3099 3100 3099 3098 3097 3095 3094 3091 3087 3085 3080 3075 3069 3065 3064 3063 3064 3064 3065 3066 3069 3070 3072 3074 3075 3076 3077 3078 3079 3080 3081 3083 3083 3080 3085 3087 3089 3092 3094 3096 3100 3105 3111
3095 3096 3095 3094 3094 3093 3092 3089 3086 3083 3080 3076 3071 3068 3062 3061 3061 3061 3061 3062 3063 3065 3066 3067 3068 3069 3070 3070 3071 3072 3072 3072 3074 3078 3081 3083 3086 3088 3091 3094 3097 3101 3106
3092 3091 3091 3091 3091 3090 3090 3090 3086 3082 3079 3077 3073 3069 3066 3061 3059 3058 3059 3060 3060 3060 3060 3061 3063 3063 3064 3064 3065 3066 3067 3069 3073 3077 3080 3084 3086 3090 3093 3095 3097 3100 3102
3089 3088 3089 3090 3089 3090 3089 3087 3086 3083 3079 3077 3074 3071 3070 3067 3064 3064 3059 3061 3062 3061 3061 3061 3062 3062 3063 3064 3064 3066 3069 3073 3075 3079 3082 3084 3087 3089 3091 3094 3097 3099 3100
3088 3088 3087 3089 3088 3088 3087 3086 3084 3083 3082 3081 3078 3077 3075 3072 3071 3071 3067 3061 3066 3067 3067 3066 3065 3065 3066 3068 3070 3072 3074 3077 3079 3081 3083 3085 3087 3089 3091 3094 3095 3097 3099
3087 3089 3090 3088 3089 3086 3085 3084 3087 3084 3082 3080 3079 3077 3076 3075 3074 3073 3072 3070 3070 3070 3070 3069 3069 3070 3072 3072 3074 3074 3074 3077 3079 3081 3082 3084 3085 3088 3090 3091 3094 3096 3098
3087 3091 3091 3089 3088 3085 3084 3084 3085 3082 3082 3080 3079 3078 3080 3077 3075 3075 3074 3073 3072 3074 3074 3073 3072 3072 3072 3073 3074 3074 3076 3078 3079 3080 3082 3083 3084 3086 3088 3089 3091 3092 3094
3083 3090 3090 3089 3089 3086 3085 3083 3082 3082 3081 3080 3079 3079 3079 3078 3077 3076 3075 3074 3073 3073 3073 3072 3071 3071 3071 3072 3074 3075 3075 3076 3077 3078 3080 3081 3083 3084 3085 3086 3087 3089 3091
3082 3087 3089 3089 3088 3088 3087 3087 3085 3085 3084 3082 3080 3078 3077 3077 3076 3076 3075 3075 3074 3073 3073 3072 3072 3072 3072 3073 3073 3073 3074 3075 3075 3076 3077 3078 3078 3079 3080 3081 3082 3084 3086